Year,Month,Day,Hour,Minute,Value (Times are PST for temperature in C)
2008,03,25,00,00,1.80
2008,03,25,00,01,1.80
2008,03,25,00,02,1.80
2008,03,25,00,03,1.80
2008,03,25,00,04,1.80
2008,03,25,00,05,1.80
2008,03,25,00,06,1.80
2008,03,25,00,07,1.80
2008,03,25,00,08,1.80
2008,03,25,00,09,1.80
2008,03,25,00,10,1.80
2008,03,25,00,11,1.80
2008,03,25,00,12,1.80
2008,03,25,00,13,1.90
2008,03,25,00,14,1.90
2008,03,25,00,15,1.90
2008,03,25,00,16,2.00
2008,03,25,00,17,2.00
2008,03,25,00,18,2.10
2008,03,25,00,19,2.20
2008,03,25,00,20,2.20
2008,03,25,00,21,2.30
2008,03,25,00,22,2.30
2008,03,25,00,23,2.30
2008,03,25,00,24,2.30
2008,03,25,00,25,2.40
2008,03,25,00,26,2.40
2008,03,25,00,27,2.40
2008,03,25,00,28,2.40
2008,03,25,00,29,2.40
2008,03,25,00,30,2.50
2008,03,25,00,31,2.50
2008,03,25,00,32,2.50
2008,03,25,00,33,2.50
2008,03,25,00,34,2.60
2008,03,25,00,35,2.60
2008,03,25,00,36,2.60
2008,03,25,00,37,2.70
2008,03,25,00,38,2.70
2008,03,25,00,39,2.80
2008,03,25,00,40,2.80
2008,03,25,00,41,2.90
2008,03,25,00,42,2.90
2008,03,25,00,43,2.90
2008,03,25,00,44,2.90
2008,03,25,00,45,2.90
2008,03,25,00,46,2.90
2008,03,25,00,47,3.00
2008,03,25,00,48,3.00
2008,03,25,00,49,3.00
2008,03,25,00,50,3.00
2008,03,25,00,51,3.10
2008,03,25,00,52,3.10
2008,03,25,00,53,3.10
2008,03,25,00,54,3.10
2008,03,25,00,55,3.20
2008,03,25,00,56,3.20
2008,03,25,00,57,3.20
2008,03,25,00,58,3.20
2008,03,25,00,59,3.10
2008,03,25,01,00,3.10
2008,03,25,01,01,2.90
2008,03,25,01,02,2.80
2008,03,25,01,03,2.60
2008,03,25,01,04,2.40
2008,03,25,01,05,2.20
2008,03,25,01,06,2.00
2008,03,25,01,07,1.90
2008,03,25,01,08,1.80
2008,03,25,01,09,1.70
2008,03,25,01,10,1.60
2008,03,25,01,11,1.60
2008,03,25,01,12,1.60
2008,03,25,01,13,1.60
2008,03,25,01,14,1.60
2008,03,25,01,15,1.50
2008,03,25,01,16,1.50
2008,03,25,01,17,1.40
2008,03,25,01,18,1.40
2008,03,25,01,19,1.40
2008,03,25,01,20,1.40
2008,03,25,01,21,1.40
2008,03,25,01,22,1.50
2008,03,25,01,23,1.50
2008,03,25,01,24,1.60
2008,03,25,01,25,1.70
2008,03,25,01,26,1.70
2008,03,25,01,27,1.80
2008,03,25,01,28,1.80
2008,03,25,01,29,1.90
2008,03,25,01,30,1.90
2008,03,25,01,31,1.90
2008,03,25,01,32,1.90
2008,03,25,01,33,1.90
2008,03,25,01,34,2.00
2008,03,25,01,35,2.00
2008,03,25,01,36,2.00
2008,03,25,01,37,2.10
2008,03,25,01,38,2.10
2008,03,25,01,39,2.20
2008,03,25,01,40,2.20
2008,03,25,01,41,2.30
2008,03,25,01,42,2.30
2008,03,25,01,43,2.30
2008,03,25,01,44,2.40
2008,03,25,01,45,2.50
2008,03,25,01,46,2.60
2008,03,25,01,47,2.70
2008,03,25,01,48,2.80
2008,03,25,01,49,2.80
2008,03,25,01,50,2.80
2008,03,25,01,51,2.90
2008,03,25,01,52,2.90
2008,03,25,01,53,2.90
2008,03,25,01,54,2.90
2008,03,25,01,55,2.90
2008,03,25,01,56,2.90
2008,03,25,01,57,2.90
2008,03,25,01,58,2.90
2008,03,25,01,59,2.90
2008,03,25,02,00,2.90
2008,03,25,02,01,2.90
2008,03,25,02,02,3.00
2008,03,25,02,03,3.00
2008,03,25,02,04,3.00
2008,03,25,02,05,3.00
2008,03,25,02,06,3.00
2008,03,25,02,07,3.00
2008,03,25,02,08,3.00
2008,03,25,02,09,2.90
2008,03,25,02,10,2.90
2008,03,25,02,11,2.90
2008,03,25,02,12,2.90
2008,03,25,02,13,2.90
2008,03,25,02,14,2.90
2008,03,25,02,15,2.90
2008,03,25,02,16,2.90
2008,03,25,02,17,2.90
2008,03,25,02,18,3.00
2008,03,25,02,19,3.00
2008,03,25,02,20,3.00
2008,03,25,02,21,3.10
2008,03,25,02,22,3.10
2008,03,25,02,23,3.10
2008,03,25,02,24,3.10
2008,03,25,02,25,3.10
2008,03,25,02,26,3.10
2008,03,25,02,27,3.10
2008,03,25,02,28,3.10
2008,03,25,02,29,3.10
2008,03,25,02,30,3.10
2008,03,25,02,31,3.10
2008,03,25,02,32,3.10
2008,03,25,02,33,3.10
2008,03,25,02,34,3.10
2008,03,25,02,35,3.10
2008,03,25,02,36,3.10
2008,03,25,02,37,3.00
2008,03,25,02,38,3.00
2008,03,25,02,39,3.00
2008,03,25,02,40,3.00
2008,03,25,02,41,2.90
2008,03,25,02,42,2.90
2008,03,25,02,43,2.90
2008,03,25,02,44,2.90
2008,03,25,02,45,2.90
2008,03,25,02,46,2.90
2008,03,25,02,47,2.90
2008,03,25,02,48,2.90
2008,03,25,02,49,2.90
2008,03,25,02,50,2.90
2008,03,25,02,51,2.90
2008,03,25,02,52,2.90
2008,03,25,02,53,2.90
2008,03,25,02,54,2.90
2008,03,25,02,55,2.90
2008,03,25,02,56,2.90
2008,03,25,02,57,2.90
2008,03,25,02,58,2.90
2008,03,25,02,59,2.90
2008,03,25,03,00,2.90
2008,03,25,03,01,2.90
2008,03,25,03,02,2.90
2008,03,25,03,03,3.00
2008,03,25,03,04,2.90
2008,03,25,03,05,3.00
2008,03,25,03,06,3.00
2008,03,25,03,07,3.10
2008,03,25,03,08,3.10
2008,03,25,03,09,3.10
2008,03,25,03,10,3.10
2008,03,25,03,11,3.00
2008,03,25,03,12,2.90
2008,03,25,03,13,2.90
2008,03,25,03,14,2.80
2008,03,25,03,15,2.80
2008,03,25,03,16,2.70
2008,03,25,03,17,2.70
2008,03,25,03,18,2.60
2008,03,25,03,19,2.50
2008,03,25,03,20,2.40
2008,03,25,03,21,2.20
2008,03,25,03,22,2.10
2008,03,25,03,23,2.00
2008,03,25,03,24,1.90
2008,03,25,03,25,1.90
2008,03,25,03,26,1.80
2008,03,25,03,27,1.80
2008,03,25,03,28,1.80
2008,03,25,03,29,1.80
2008,03,25,03,30,1.80
2008,03,25,03,31,1.80
2008,03,25,03,32,1.80
2008,03,25,03,33,1.80
2008,03,25,03,34,1.80
2008,03,25,03,35,1.90
2008,03,25,03,36,1.90
2008,03,25,03,37,2.00
2008,03,25,03,38,2.10
2008,03,25,03,39,2.10
2008,03,25,03,40,2.20
2008,03,25,03,41,2.20
2008,03,25,03,42,2.30
2008,03,25,03,43,2.30
2008,03,25,03,44,2.30
2008,03,25,03,45,2.40
2008,03,25,03,46,2.40
2008,03,25,03,47,2.40
2008,03,25,03,48,2.50
2008,03,25,03,49,2.50
2008,03,25,03,50,2.50
2008,03,25,03,51,2.50
2008,03,25,03,52,2.50
2008,03,25,03,53,2.50
2008,03,25,03,54,2.60
2008,03,25,03,55,2.60
2008,03,25,03,56,2.60
2008,03,25,03,57,2.60
2008,03,25,03,58,2.60
2008,03,25,03,59,2.60
2008,03,25,04,00,2.60
2008,03,25,04,01,2.60
2008,03,25,04,02,2.60
2008,03,25,04,03,2.60
2008,03,25,04,04,2.70
2008,03,25,04,05,2.70
2008,03,25,04,06,2.70
2008,03,25,04,07,2.70
2008,03,25,04,08,2.70
2008,03,25,04,09,2.80
2008,03,25,04,10,2.80
2008,03,25,04,11,2.80
2008,03,25,04,12,2.80
2008,03,25,04,13,2.80
2008,03,25,04,14,2.80
2008,03,25,04,15,2.90
2008,03,25,04,16,2.90
2008,03,25,04,17,2.80
2008,03,25,04,18,2.90
2008,03,25,04,19,2.90
2008,03,25,04,20,2.90
2008,03,25,04,21,2.90
2008,03,25,04,22,2.90
2008,03,25,04,23,2.90
2008,03,25,04,24,2.90
2008,03,25,04,25,2.80
2008,03,25,04,26,2.80
2008,03,25,04,27,2.80
2008,03,25,04,28,2.80
2008,03,25,04,29,2.80
2008,03,25,04,30,2.80
2008,03,25,04,31,2.80
2008,03,25,04,32,2.80
2008,03,25,04,33,2.80
2008,03,25,04,34,2.80
2008,03,25,04,35,2.80
2008,03,25,04,36,2.80
2008,03,25,04,37,2.80
2008,03,25,04,38,2.80
2008,03,25,04,39,2.80
2008,03,25,04,40,2.80
2008,03,25,04,41,2.80
2008,03,25,04,42,2.80
2008,03,25,04,43,2.80
2008,03,25,04,44,2.80
2008,03,25,04,45,2.80
2008,03,25,04,46,2.80
2008,03,25,04,47,2.80
2008,03,25,04,48,2.80
2008,03,25,04,49,2.80
2008,03,25,04,50,2.80
2008,03,25,04,51,2.80
2008,03,25,04,52,2.80
2008,03,25,04,53,2.80
2008,03,25,04,54,2.80
2008,03,25,04,55,2.80
2008,03,25,04,56,2.80
2008,03,25,04,57,2.80
2008,03,25,04,58,2.80
2008,03,25,04,59,2.80
2008,03,25,05,00,2.80
2008,03,25,05,01,2.80
2008,03,25,05,02,2.80
2008,03,25,05,03,2.80
2008,03,25,05,04,2.80
2008,03,25,05,05,2.80
2008,03,25,05,06,2.80
2008,03,25,05,07,2.80
2008,03,25,05,08,2.80
2008,03,25,05,09,2.80
2008,03,25,05,10,2.70
2008,03,25,05,11,2.70
2008,03,25,05,12,2.70
2008,03,25,05,13,2.70
2008,03,25,05,14,2.70
2008,03,25,05,15,2.70
2008,03,25,05,16,2.70
2008,03,25,05,17,2.70
2008,03,25,05,18,2.70
2008,03,25,05,19,2.70
2008,03,25,05,20,2.70
2008,03,25,05,21,2.70
2008,03,25,05,22,2.70
2008,03,25,05,23,2.70
2008,03,25,05,24,2.70
2008,03,25,05,25,2.70
2008,03,25,05,26,2.70
2008,03,25,05,27,2.70
2008,03,25,05,28,2.70
2008,03,25,05,29,2.70
2008,03,25,05,30,2.70
2008,03,25,05,31,2.70
2008,03,25,05,32,2.70
2008,03,25,05,33,2.70
2008,03,25,05,34,2.70
2008,03,25,05,35,2.70
2008,03,25,05,36,2.70
2008,03,25,05,37,2.70
2008,03,25,05,38,2.70
2008,03,25,05,39,2.70
2008,03,25,05,40,2.70
2008,03,25,05,41,2.70
2008,03,25,05,42,2.70
2008,03,25,05,43,2.70
2008,03,25,05,44,2.70
2008,03,25,05,45,2.70
2008,03,25,05,46,2.70
2008,03,25,05,47,2.70
2008,03,25,05,48,2.70
2008,03,25,05,49,2.80
2008,03,25,05,50,2.80
2008,03,25,05,51,2.80
2008,03,25,05,52,2.80
2008,03,25,05,53,2.80
2008,03,25,05,54,2.80
2008,03,25,05,55,2.80
2008,03,25,05,56,2.80
2008,03,25,05,57,2.90
2008,03,25,05,58,2.90
2008,03,25,05,59,2.90
2008,03,25,06,00,2.90
2008,03,25,06,01,2.90
2008,03,25,06,02,2.90
2008,03,25,06,03,2.90
2008,03,25,06,04,2.90
2008,03,25,06,05,2.90
2008,03,25,06,06,2.90
2008,03,25,06,07,2.90
2008,03,25,06,08,2.90
2008,03,25,06,09,2.90
2008,03,25,06,10,2.90
2008,03,25,06,11,2.90
2008,03,25,06,12,2.90
2008,03,25,06,13,2.90
2008,03,25,06,14,2.90
2008,03,25,06,15,2.90
2008,03,25,06,16,2.90
2008,03,25,06,17,2.90
2008,03,25,06,18,2.90
2008,03,25,06,19,2.90
2008,03,25,06,20,2.90
2008,03,25,06,21,2.90
2008,03,25,06,22,2.90
2008,03,25,06,23,2.90
2008,03,25,06,24,2.90
2008,03,25,06,25,2.90
2008,03,25,06,26,2.90
2008,03,25,06,27,2.90
2008,03,25,06,28,3.00
2008,03,25,06,29,2.90
2008,03,25,06,30,2.90
2008,03,25,06,31,2.90
2008,03,25,06,32,2.90
2008,03,25,06,33,2.90
2008,03,25,06,34,2.90
2008,03,25,06,35,2.90
2008,03,25,06,36,2.90
2008,03,25,06,37,2.90
2008,03,25,06,38,2.90
2008,03,25,06,39,2.90
2008,03,25,06,40,2.90
2008,03,25,06,41,2.90
2008,03,25,06,42,2.90
2008,03,25,06,43,2.90
2008,03,25,06,44,2.90
2008,03,25,06,45,2.90
2008,03,25,06,46,2.90
2008,03,25,06,47,2.90
2008,03,25,06,48,2.90
2008,03,25,06,49,2.90
2008,03,25,06,50,2.90
2008,03,25,06,51,2.90
2008,03,25,06,52,2.90
2008,03,25,06,53,2.80
2008,03,25,06,54,2.80
2008,03,25,06,55,2.80
2008,03,25,06,56,2.80
2008,03,25,06,57,2.80
2008,03,25,06,58,2.80
2008,03,25,06,59,2.80
2008,03,25,07,00,2.80
2008,03,25,07,01,2.80
2008,03,25,07,02,2.80
2008,03,25,07,03,2.80
2008,03,25,07,04,2.80
2008,03,25,07,05,2.80
2008,03,25,07,06,2.80
2008,03,25,07,07,2.80
2008,03,25,07,08,2.80
2008,03,25,07,09,2.80
2008,03,25,07,10,2.80
2008,03,25,07,11,2.80
2008,03,25,07,12,2.80
2008,03,25,07,13,2.80
2008,03,25,07,14,2.80
2008,03,25,07,15,2.80
2008,03,25,07,16,2.80
2008,03,25,07,17,2.80
2008,03,25,07,18,2.80
2008,03,25,07,19,2.80
2008,03,25,07,20,2.80
2008,03,25,07,21,2.80
2008,03,25,07,22,2.80
2008,03,25,07,23,2.80
2008,03,25,07,24,2.80
2008,03,25,07,25,2.80
2008,03,25,07,26,2.80
2008,03,25,07,27,2.80
2008,03,25,07,28,2.70
2008,03,25,07,29,2.70
2008,03,25,07,30,2.70
2008,03,25,07,31,2.70
2008,03,25,07,32,2.70
2008,03,25,07,33,2.70
2008,03,25,07,34,2.70
2008,03,25,07,35,2.70
2008,03,25,07,36,2.70
2008,03,25,07,37,2.70
2008,03,25,07,38,2.70
2008,03,25,07,39,2.70
2008,03,25,07,40,2.70
2008,03,25,07,41,2.70
2008,03,25,07,42,2.70
2008,03,25,07,43,2.70
2008,03,25,07,44,2.70
2008,03,25,07,45,2.70
2008,03,25,07,46,2.70
2008,03,25,07,47,2.70
2008,03,25,07,48,2.70
2008,03,25,07,49,2.70
2008,03,25,07,50,2.70
2008,03,25,07,51,2.70
2008,03,25,07,52,2.70
2008,03,25,07,53,2.70
2008,03,25,07,54,2.70
2008,03,25,07,55,2.70
2008,03,25,07,56,2.70
2008,03,25,07,57,2.70
2008,03,25,07,58,2.70
2008,03,25,07,59,2.70
2008,03,25,08,00,2.70
2008,03,25,08,01,2.70
2008,03,25,08,02,2.70
2008,03,25,08,03,2.70
2008,03,25,08,04,2.70
2008,03,25,08,05,2.70
2008,03,25,08,06,2.70
2008,03,25,08,07,2.70
2008,03,25,08,08,2.70
2008,03,25,08,09,2.70
2008,03,25,08,10,2.70
2008,03,25,08,11,2.70
2008,03,25,08,12,2.70
2008,03,25,08,13,2.70
2008,03,25,08,14,2.70
2008,03,25,08,15,2.70
2008,03,25,08,16,2.70
2008,03,25,08,17,2.70
2008,03,25,08,18,2.70
2008,03,25,08,19,2.70
2008,03,25,08,20,2.70
2008,03,25,08,21,2.70
2008,03,25,08,22,2.70
2008,03,25,08,23,2.70
2008,03,25,08,24,2.70
2008,03,25,08,25,2.70
2008,03,25,08,26,2.80
2008,03,25,08,27,2.80
2008,03,25,08,28,2.80
2008,03,25,08,29,2.80
2008,03,25,08,30,2.80
2008,03,25,08,31,2.80
2008,03,25,08,32,2.80
2008,03,25,08,33,2.80
2008,03,25,08,34,2.80
2008,03,25,08,35,2.80
2008,03,25,08,36,2.80
2008,03,25,08,37,2.80
2008,03,25,08,38,2.80
2008,03,25,08,39,2.80
2008,03,25,08,40,2.80
2008,03,25,08,41,2.80
2008,03,25,08,42,2.80
2008,03,25,08,43,2.80
2008,03,25,08,44,2.80
2008,03,25,08,45,2.80
2008,03,25,08,46,2.90
2008,03,25,08,47,2.90
2008,03,25,08,48,2.90
2008,03,25,08,49,2.90
2008,03,25,08,50,2.90
2008,03,25,08,51,2.90
2008,03,25,08,52,2.90
2008,03,25,08,53,2.90
2008,03,25,08,54,2.90
2008,03,25,08,55,2.90
2008,03,25,08,56,3.00
2008,03,25,08,57,3.00
2008,03,25,08,58,3.00
2008,03,25,08,59,3.00
2008,03,25,09,00,3.00
2008,03,25,09,01,3.10
2008,03,25,09,02,3.10
2008,03,25,09,03,3.10
2008,03,25,09,04,3.10
2008,03,25,09,05,3.10
2008,03,25,09,06,3.10
2008,03,25,09,07,3.10
2008,03,25,09,08,3.10
2008,03,25,09,09,3.10
2008,03,25,09,10,3.10
2008,03,25,09,11,3.10
2008,03,25,09,12,3.10
2008,03,25,09,13,3.10
2008,03,25,09,14,3.10
2008,03,25,09,15,3.10
2008,03,25,09,16,3.10
2008,03,25,09,17,3.10
2008,03,25,09,18,3.10
2008,03,25,09,19,3.10
2008,03,25,09,20,3.10
2008,03,25,09,21,3.10
2008,03,25,09,22,3.10
2008,03,25,09,23,3.10
2008,03,25,09,24,3.10
2008,03,25,09,25,3.00
2008,03,25,09,26,3.00
2008,03,25,09,27,3.00
2008,03,25,09,28,3.00
2008,03,25,09,29,3.00
2008,03,25,09,30,3.00
2008,03,25,09,31,2.90
2008,03,25,09,32,2.90
2008,03,25,09,33,2.90
2008,03,25,09,34,2.90
2008,03,25,09,35,2.90
2008,03,25,09,36,2.90
2008,03,25,09,37,2.90
2008,03,25,09,38,2.90
2008,03,25,09,39,2.90
2008,03,25,09,40,2.90
2008,03,25,09,41,2.90
2008,03,25,09,42,2.90
2008,03,25,09,43,2.90
2008,03,25,09,44,2.90
2008,03,25,09,45,2.90
2008,03,25,09,46,2.90
2008,03,25,09,47,2.80
2008,03,25,09,48,2.80
2008,03,25,09,49,2.80
2008,03,25,09,50,2.80
2008,03,25,09,51,2.80
2008,03,25,09,52,2.80
2008,03,25,09,53,2.80
2008,03,25,09,54,2.80
2008,03,25,09,55,2.80
2008,03,25,09,56,2.80
2008,03,25,09,57,2.80
2008,03,25,09,58,2.80
2008,03,25,09,59,2.80
2008,03,25,10,00,2.90
2008,03,25,10,01,2.90
2008,03,25,10,02,2.90
2008,03,25,10,03,2.90
2008,03,25,10,04,2.90
2008,03,25,10,05,2.90
2008,03,25,10,06,2.90
2008,03,25,10,07,2.90
2008,03,25,10,08,2.90
2008,03,25,10,09,2.90
2008,03,25,10,10,2.90
2008,03,25,10,11,3.00
2008,03,25,10,12,3.00
2008,03,25,10,13,3.00
2008,03,25,10,14,3.00
2008,03,25,10,15,3.00
2008,03,25,10,16,3.10
2008,03,25,10,17,3.10
2008,03,25,10,18,3.10
2008,03,25,10,19,3.20
2008,03,25,10,20,3.20
2008,03,25,10,21,3.20
2008,03,25,10,22,3.20
2008,03,25,10,23,3.20
2008,03,25,10,24,3.20
2008,03,25,10,25,3.20
2008,03,25,10,26,3.20
2008,03,25,10,27,3.20
2008,03,25,10,28,3.30
2008,03,25,10,29,3.30
2008,03,25,10,30,3.30
2008,03,25,10,31,3.30
2008,03,25,10,32,3.20
2008,03,25,10,33,3.20
2008,03,25,10,34,3.20
2008,03,25,10,35,3.20
2008,03,25,10,36,3.20
2008,03,25,10,37,3.20
2008,03,25,10,38,3.20
2008,03,25,10,39,3.20
2008,03,25,10,40,3.20
2008,03,25,10,41,3.20
2008,03,25,10,42,3.20
2008,03,25,10,43,3.20
2008,03,25,10,44,3.20
2008,03,25,10,45,3.30
2008,03,25,10,46,3.30
2008,03,25,10,47,3.30
2008,03,25,10,48,3.30
2008,03,25,10,49,3.30
2008,03,25,10,50,3.30
2008,03,25,10,51,3.30
2008,03,25,10,52,3.30
2008,03,25,10,53,3.30
2008,03,25,10,54,3.30
2008,03,25,10,55,3.30
2008,03,25,10,56,3.30
2008,03,25,10,57,3.30
2008,03,25,10,58,3.30
2008,03,25,10,59,3.30
2008,03,25,11,00,3.30
2008,03,25,11,01,3.30
2008,03,25,11,02,3.30
2008,03,25,11,03,3.30
2008,03,25,11,04,3.30
2008,03,25,11,05,3.30
2008,03,25,11,06,3.40
2008,03,25,11,07,3.40
2008,03,25,11,08,3.40
2008,03,25,11,09,3.40
2008,03,25,11,10,3.40
2008,03,25,11,11,3.40
2008,03,25,11,12,3.40
2008,03,25,11,13,3.40
2008,03,25,11,14,3.40
2008,03,25,11,15,3.40
2008,03,25,11,16,3.40
2008,03,25,11,17,3.40
2008,03,25,11,18,3.40
2008,03,25,11,19,3.40
2008,03,25,11,20,3.50
2008,03,25,11,21,3.50
2008,03,25,11,22,3.50
2008,03,25,11,23,3.50
2008,03,25,11,24,3.50
2008,03,25,11,25,3.50
2008,03,25,11,26,3.60
2008,03,25,11,27,3.60
2008,03,25,11,28,3.60
2008,03,25,11,29,3.60
2008,03,25,11,30,3.70
2008,03,25,11,31,3.70
2008,03,25,11,32,3.70
2008,03,25,11,33,3.70
2008,03,25,11,34,3.80
2008,03,25,11,35,3.80
2008,03,25,11,36,3.90
2008,03,25,11,37,3.90
2008,03,25,11,38,3.90
2008,03,25,11,39,4.00
2008,03,25,11,40,4.00
2008,03,25,11,41,3.90
2008,03,25,11,42,3.90
2008,03,25,11,43,3.90
2008,03,25,11,44,4.00
2008,03,25,11,45,4.00
2008,03,25,11,46,4.10
2008,03,25,11,47,4.10
2008,03,25,11,48,4.10
2008,03,25,11,49,4.10
2008,03,25,11,50,4.10
2008,03,25,11,51,4.10
2008,03,25,11,52,4.20
2008,03,25,11,53,4.20
2008,03,25,11,54,4.20
2008,03,25,11,55,4.20
2008,03,25,11,56,4.30
2008,03,25,11,57,4.30
2008,03,25,11,58,4.30
2008,03,25,11,59,4.30
2008,03,25,12,00,4.30
2008,03,25,12,01,4.30
2008,03,25,12,02,4.30
2008,03,25,12,03,4.30
2008,03,25,12,04,4.30
2008,03,25,12,05,4.30
2008,03,25,12,06,4.30
2008,03,25,12,07,4.30
2008,03,25,12,08,4.30
2008,03,25,12,09,4.30
2008,03,25,12,10,4.30
2008,03,25,12,11,4.30
2008,03,25,12,12,4.30
2008,03,25,12,13,4.30
2008,03,25,12,14,4.30
2008,03,25,12,15,4.30
2008,03,25,12,16,4.30
2008,03,25,12,17,4.40
2008,03,25,12,18,4.40
2008,03,25,12,19,4.40
2008,03,25,12,20,4.40
2008,03,25,12,21,4.40
2008,03,25,12,22,4.40
2008,03,25,12,23,4.40
2008,03,25,12,24,4.40
2008,03,25,12,25,4.40
2008,03,25,12,26,4.40
2008,03,25,12,27,4.50
2008,03,25,12,28,4.50
2008,03,25,12,29,4.60
2008,03,25,12,30,4.60
2008,03,25,12,31,4.60
2008,03,25,12,32,4.60
2008,03,25,12,33,4.60
2008,03,25,12,34,4.60
2008,03,25,12,35,4.60
2008,03,25,12,36,4.60
2008,03,25,12,37,4.60
2008,03,25,12,38,4.60
2008,03,25,12,39,4.50
2008,03,25,12,40,4.60
2008,03,25,12,41,4.60
2008,03,25,12,42,4.60
2008,03,25,12,43,4.60
2008,03,25,12,44,4.60
2008,03,25,12,45,4.60
2008,03,25,12,46,4.60
2008,03,25,12,47,4.60
2008,03,25,12,48,4.60
2008,03,25,12,49,4.60
2008,03,25,12,50,4.60
2008,03,25,12,51,4.60
2008,03,25,12,52,4.60
2008,03,25,12,53,4.70
2008,03,25,12,54,4.70
2008,03,25,12,55,4.70
2008,03,25,12,56,4.70
2008,03,25,12,57,4.70
2008,03,25,12,58,4.70
2008,03,25,12,59,4.70
2008,03,25,13,00,4.70
2008,03,25,13,01,4.70
2008,03,25,13,02,4.70
2008,03,25,13,03,4.70
2008,03,25,13,04,4.70
2008,03,25,13,05,4.70
2008,03,25,13,06,4.70
2008,03,25,13,07,4.80
2008,03,25,13,08,4.80
2008,03,25,13,09,4.80
2008,03,25,13,10,4.80
2008,03,25,13,11,4.80
2008,03,25,13,12,4.80
2008,03,25,13,13,4.80
2008,03,25,13,14,4.80
2008,03,25,13,15,4.80
2008,03,25,13,16,4.80
2008,03,25,13,17,4.80
2008,03,25,13,18,4.80
2008,03,25,13,19,4.80
2008,03,25,13,20,4.80
2008,03,25,13,21,4.80
2008,03,25,13,22,4.80
2008,03,25,13,23,4.90
2008,03,25,13,24,4.90
2008,03,25,13,25,4.90
2008,03,25,13,26,4.90
2008,03,25,13,27,4.90
2008,03,25,13,28,4.90
2008,03,25,13,29,4.90
2008,03,25,13,30,5.00
2008,03,25,13,31,5.00
2008,03,25,13,32,5.10
2008,03,25,13,33,5.10
2008,03,25,13,34,5.10
2008,03,25,13,35,5.10
2008,03,25,13,36,5.20
2008,03,25,13,37,5.20
2008,03,25,13,38,5.20
2008,03,25,13,39,5.20
2008,03,25,13,40,5.20
2008,03,25,13,41,5.20
2008,03,25,13,42,5.20
2008,03,25,13,43,5.20
2008,03,25,13,44,5.10
2008,03,25,13,45,5.10
2008,03,25,13,46,5.10
2008,03,25,13,47,5.10
2008,03,25,13,48,5.10
2008,03,25,13,49,5.10
2008,03,25,13,50,5.10
2008,03,25,13,51,5.10
2008,03,25,13,52,5.10
2008,03,25,13,53,5.10
2008,03,25,13,54,5.20
2008,03,25,13,55,5.20
2008,03,25,13,56,5.30
2008,03,25,13,57,5.30
2008,03,25,13,58,5.30
2008,03,25,13,59,5.30
2008,03,25,14,00,5.30
2008,03,25,14,01,5.40
2008,03,25,14,02,5.40
2008,03,25,14,03,5.40
2008,03,25,14,04,5.40
2008,03,25,14,05,5.40
2008,03,25,14,06,5.40
2008,03,25,14,07,5.40
2008,03,25,14,08,5.40
2008,03,25,14,09,5.40
2008,03,25,14,10,5.50
2008,03,25,14,11,5.50
2008,03,25,14,12,5.60
2008,03,25,14,13,5.60
2008,03,25,14,14,5.60
2008,03,25,14,15,5.60
2008,03,25,14,16,5.60
2008,03,25,14,17,5.60
2008,03,25,14,18,5.60
2008,03,25,14,19,5.60
2008,03,25,14,20,5.60
2008,03,25,14,21,5.60
2008,03,25,14,22,5.60
2008,03,25,14,23,5.60
2008,03,25,14,24,5.60
2008,03,25,14,25,5.50
2008,03,25,14,26,5.50
2008,03,25,14,27,5.60
2008,03,25,14,28,5.60
2008,03,25,14,29,5.60
2008,03,25,14,30,5.60
2008,03,25,14,31,5.60
2008,03,25,14,32,5.60
2008,03,25,14,33,5.60
2008,03,25,14,34,5.50
2008,03,25,14,35,5.50
2008,03,25,14,36,5.40
2008,03,25,14,37,5.40
2008,03,25,14,38,5.40
2008,03,25,14,39,5.40
2008,03,25,14,40,5.40
2008,03,25,14,41,5.40
2008,03,25,14,42,5.40
2008,03,25,14,43,5.40
2008,03,25,14,44,5.40
2008,03,25,14,45,5.40
2008,03,25,14,46,5.40
2008,03,25,14,47,5.40
2008,03,25,14,48,5.50
2008,03,25,14,49,5.50
2008,03,25,14,50,5.50
2008,03,25,14,51,5.50
2008,03,25,14,52,5.50
2008,03,25,14,53,5.50
2008,03,25,14,54,5.60
2008,03,25,14,55,5.60
2008,03,25,14,56,5.60
2008,03,25,14,57,5.60
2008,03,25,14,58,5.60
2008,03,25,14,59,5.60
2008,03,25,15,00,5.60
2008,03,25,15,01,5.60
2008,03,25,15,02,5.70
2008,03,25,15,03,5.70
2008,03,25,15,04,5.80
2008,03,25,15,05,5.80
2008,03,25,15,06,5.80
2008,03,25,15,07,5.80
2008,03,25,15,08,5.70
2008,03,25,15,09,5.60
2008,03,25,15,10,5.60
2008,03,25,15,11,5.50
2008,03,25,15,12,5.50
2008,03,25,15,13,5.40
2008,03,25,15,14,5.40
2008,03,25,15,15,5.40
2008,03,25,15,16,5.40
2008,03,25,15,17,5.50
2008,03,25,15,18,5.50
2008,03,25,15,19,5.60
2008,03,25,15,20,5.60
2008,03,25,15,21,5.60
2008,03,25,15,22,5.60
2008,03,25,15,23,5.60
2008,03,25,15,24,5.60
2008,03,25,15,25,5.60
2008,03,25,15,26,5.60
2008,03,25,15,27,5.60
2008,03,25,15,28,5.60
2008,03,25,15,29,5.60
2008,03,25,15,30,5.60
2008,03,25,15,31,5.60
2008,03,25,15,32,5.60
2008,03,25,15,33,5.60
2008,03,25,15,34,5.60
2008,03,25,15,35,5.60
2008,03,25,15,36,5.60
2008,03,25,15,37,5.60
2008,03,25,15,38,5.60
2008,03,25,15,39,5.50
2008,03,25,15,40,5.40
2008,03,25,15,41,5.40
2008,03,25,15,42,5.30
2008,03,25,15,43,5.30
2008,03,25,15,44,5.30
2008,03,25,15,45,5.30
2008,03,25,15,46,5.30
2008,03,25,15,47,5.30
2008,03,25,15,48,5.30
2008,03,25,15,49,5.30
2008,03,25,15,50,5.20
2008,03,25,15,51,5.20
2008,03,25,15,52,5.20
2008,03,25,15,53,5.20
2008,03,25,15,54,5.20
2008,03,25,15,55,5.30
2008,03,25,15,56,5.30
2008,03,25,15,57,5.30
2008,03,25,15,58,5.30
2008,03,25,15,59,5.30
2008,03,25,16,00,5.30
2008,03,25,16,01,5.30
2008,03,25,16,02,5.30
2008,03,25,16,03,5.30
2008,03,25,16,04,5.30
2008,03,25,16,05,5.30
2008,03,25,16,06,5.30
2008,03,25,16,07,5.30
2008,03,25,16,08,5.30
2008,03,25,16,09,5.40
2008,03,25,16,10,5.40
2008,03,25,16,11,5.40
2008,03,25,16,12,5.40
2008,03,25,16,13,5.40
2008,03,25,16,14,5.40
2008,03,25,16,15,5.40
2008,03,25,16,16,5.50
2008,03,25,16,17,5.50
2008,03,25,16,18,5.60
2008,03,25,16,19,5.60
2008,03,25,16,20,5.60
2008,03,25,16,21,5.60
2008,03,25,16,22,5.70
2008,03,25,16,23,5.70
2008,03,25,16,24,5.80
2008,03,25,16,25,5.80
2008,03,25,16,26,5.80
2008,03,25,16,27,5.80
2008,03,25,16,28,5.90
2008,03,25,16,29,5.90
2008,03,25,16,30,5.90
2008,03,25,16,31,5.90
2008,03,25,16,32,5.90
2008,03,25,16,33,5.90
2008,03,25,16,34,5.90
2008,03,25,16,35,6.00
2008,03,25,16,36,6.00
2008,03,25,16,37,6.00
2008,03,25,16,38,6.00
2008,03,25,16,39,6.00
2008,03,25,16,40,6.00
2008,03,25,16,41,6.00
2008,03,25,16,42,6.00
2008,03,25,16,43,6.00
2008,03,25,16,44,6.00
2008,03,25,16,45,5.90
2008,03,25,16,46,5.90
2008,03,25,16,47,5.90
2008,03,25,16,48,5.90
2008,03,25,16,49,5.80
2008,03,25,16,50,5.80
2008,03,25,16,51,5.80
2008,03,25,16,52,5.80
2008,03,25,16,53,5.80
2008,03,25,16,54,5.80
2008,03,25,16,55,5.80
2008,03,25,16,56,5.80
2008,03,25,16,57,5.80
2008,03,25,16,58,5.80
2008,03,25,16,59,5.80
2008,03,25,17,00,5.80
2008,03,25,17,01,5.70
2008,03,25,17,02,5.70
2008,03,25,17,03,5.70
2008,03,25,17,04,5.60
2008,03,25,17,05,5.50
2008,03,25,17,06,5.40
2008,03,25,17,07,5.30
2008,03,25,17,08,5.30
2008,03,25,17,09,5.20
2008,03,25,17,10,5.10
2008,03,25,17,11,5.10
2008,03,25,17,12,5.00
2008,03,25,17,13,4.90
2008,03,25,17,14,4.90
2008,03,25,17,15,4.80
2008,03,25,17,16,4.70
2008,03,25,17,17,4.70
2008,03,25,17,18,4.60
2008,03,25,17,19,4.60
2008,03,25,17,20,4.50
2008,03,25,17,21,4.50
2008,03,25,17,22,4.40
2008,03,25,17,23,4.40
2008,03,25,17,24,4.40
2008,03,25,17,25,4.40
2008,03,25,17,26,4.40
2008,03,25,17,27,4.40
2008,03,25,17,28,4.40
2008,03,25,17,29,4.40
2008,03,25,17,30,4.30
2008,03,25,17,31,4.30
2008,03,25,17,32,4.30
2008,03,25,17,33,4.30
2008,03,25,17,34,4.30
2008,03,25,17,35,4.30
2008,03,25,17,36,4.30
2008,03,25,17,37,4.20
2008,03,25,17,38,4.20
2008,03,25,17,39,4.20
2008,03,25,17,40,4.30
2008,03,25,17,41,4.30
2008,03,25,17,42,4.30
2008,03,25,17,43,4.30
2008,03,25,17,44,4.20
2008,03,25,17,45,4.20
2008,03,25,17,46,4.20
2008,03,25,17,47,4.20
2008,03,25,17,48,4.20
2008,03,25,17,49,4.20
2008,03,25,17,50,4.20
2008,03,25,17,51,4.20
2008,03,25,17,52,4.20
2008,03,25,17,53,4.30
2008,03,25,17,54,4.30
2008,03,25,17,55,4.30
2008,03,25,17,56,4.30
2008,03,25,17,57,4.30
2008,03,25,17,58,4.30
2008,03,25,17,59,4.30
2008,03,25,18,00,4.30
2008,03,25,18,01,4.30
2008,03,25,18,02,4.30
2008,03,25,18,03,4.30
2008,03,25,18,04,4.30
2008,03,25,18,05,4.30
2008,03,25,18,06,4.30